Location: Brunsen
(51.8651°N, 9.8610°E)
Time: 15:28:20
(UTC+00:00)

Cosmos 1850 Rocket - Pass Details

Date: 23 May 2024
Orbit: 753 x 782 km, 74.0° (Epoch: 23 June)

Event Time Altitude Azimuth Distance (km) Brightness Sun altitude
Exits shadow 01:46:19 14° 211° (SSW) 2,064 5.6 -10.5°
Maximum altitude 01:50:55 76° 296° (WNW) 802 4.1 -10.1°
Drops below altitude 10° 01:56:12 10° 23° (NNE) 2,320 7.9 -9.6°
Sets 01:58:35 0° 25° (NNE) 3,246 9.1 -9.4°
